This is the latest recevied weather packets stored in our database for station/object WD4IXD-WX. If no packets are shown the sender has not sent any weather packets the latest 10 day(s).
| Time | Temp. | Humidity | Pressure | Rain* | Wind** | Luminosity | Snow |
|---|---|---|---|---|---|---|---|
| 1778189704 | 8.89° C | 39% | 1019.9 hPa | 0 mm | - | 218 W/m² | - |
| 1778189404 | 9.44° C | 39% | 1020 hPa | 0 mm | - | 221 W/m² | - |
| 1778189104 | 9.44° C | 37% | 1020 hPa | 0 mm | - | 236 W/m² | - |
| 1778188804 | 10° C | 38% | 1020 hPa | 0 mm | - | 371 W/m² | - |
| 1778188504 | 10° C | 39% | 1020 hPa | 0 mm | - | 1072 W/m² | - |
| 1778188204 | 9.44° C | 38% | 1020.1 hPa | 0 mm | - | 457 W/m² | - |
| 1778187904 | 8.89° C | 42% | 1020.2 hPa | 0 mm | - | 1037 W/m² | - |
| 1778187604 | 9.44° C | 38% | 1020.2 hPa | 0 mm | - | 229 W/m² | - |
| 1778187304 | 9.44° C | 40% | 1020.2 hPa | 0 mm | - | 288 W/m² | - |
| 1778187004 | 10° C | 40% | 1020.3 hPa | 0 mm | - | 1118 W/m² | - |
| 1778186703 | 10° C | 40% | 1020.2 hPa | 0 mm | - | 1178 W/m² | - |
| 1778186404 | 10° C | 41% | 1020.2 hPa | 0 mm | - | 1139 W/m² | - |
| 1778186104 | 8.89° C | 40% | 1020.3 hPa | 0 mm | - | 1025 W/m² | - |
| 1778185804 | 9.44° C | 40% | 1020.3 hPa | 0 mm | - | 923 W/m² | - |
| 1778185504 | 9.44° C | 41% | 1020.3 hPa | 0 mm | - | 1107 W/m² | - |
| 1778185203 | 9.44° C | 40% | 1020.2 hPa | 0 mm | - | 1099 W/m² | - |
| 1778184904 | 10° C | 40% | 1020.2 hPa | 0 mm | - | 1116 W/m² | - |
| 1778184603 | 9.44° C | 42% | 1020.2 hPa | 0 mm | - | 1125 W/m² | - |
| 1778184304 | 9.44° C | 41% | 1020.3 hPa | 0 mm | - | 1118 W/m² | - |
| 1778184003 | 9.44° C | 41% | 1020.3 hPa | 0 mm | - | 967 W/m² | - |
| 1778183703 | 8.89° C | 40% | 1020.3 hPa | 0 mm | - | 1158 W/m² | - |
| 1778183403 | 8.33° C | 42% | 1020.3 hPa | 0 mm | - | 631 W/m² | - |
| 1778183104 | 8.33° C | 42% | 1020.3 hPa | 0 mm | - | 341 W/m² | - |
| 1778182803 | 8.33° C | 42% | 1020.3 hPa | 0 mm | - | 339 W/m² | - |
| 1778182504 | 8.33° C | 42% | 1020.3 hPa | 0 mm | - | 301 W/m² | - |
* Rain latest hour (hover to see other rain measurements)
** Current wind speed in m/s (hover to see current wind gust speed)